CST,Max TemperatureF,Mean TemperatureF,Min TemperatureF,Max Dew PointF,MeanDew PointF,Min DewpointF,Max Humidity, Mean Humidity, Min Humidity, Max Sea Level PressureIn, Mean Sea Level PressureIn, Min Sea Level PressureIn, Max VisibilityMiles, Mean VisibilityMiles, Min VisibilityMiles, Max Wind SpeedMPH, Mean Wind SpeedMPH, Max Gust SpeedMPH,PrecipitationIn, CloudCover, Events, WindDirDegrees
2011-11-1,71,52,32,46,37,28,93,59,31,29.94,29.89,29.84,10,10,10,20,5,22,0.00,0,,202
2011-11-2,55,44,33,43,36,30,100,82,47,30.18,30.07,29.92,10,9,1,23,13,32,0.89,7,Rain-Snow,5
2011-11-3,51,40,28,34,29,25,100,65,35,30.26,30.22,30.13,10,10,10,18,13,23,0.00,2,,352
2011-11-4,55,38,21,39,28,19,100,75,26,30.28,30.20,30.07,10,10,5,14,2,18,0.00,0,,157
2011-11-5,59,49,39,43,41,37,93,75,48,30.06,29.89,29.71,10,10,7,22,11,29,0.00,0,,159
2011-11-6,57,50,44,45,37,27,76,57,31,30.01,29.84,29.69,10,10,10,22,14,29,0.00,0,,222
2011-11-7,62,43,24,41,28,16,100,70,18,30.20,30.14,30.09,10,9,4,16,3,22,0.30,2,Rain,39
2011-11-8,44,38,32,41,39,32,100,91,81,30.04,30.01,29.96,10,9,2,23,14,29,0.77,8,Rain-Snow,27
2011-11-9,48,40,33,34,28,21,100,67,43,30.24,30.14,30.00,10,10,4,21,12,31,0.24,2,Snow,311
2011-11-10,44,34,23,21,18,5,93,57,20,30.28,30.21,30.11,10,10,10,17,9,25,0.00,0,,286
2011-11-11,60,42,24,34,27,19,93,66,29,30.03,29.82,29.74,10,10,10,12,3,16,0.00,0,,201
2011-11-12,59,44,30,37,32,27,100,69,36,29.73,29.59,29.44,10,10,10,20,6,25,0.00,0,,179
2011-11-13,55,47,37,43,33,23,87,57,33,29.60,29.42,29.25,10,10,10,18,9,25,0.00,0,,232
2011-11-14,59,46,33,36,29,21,93,49,23,29.71,29.66,29.59,10,10,10,17,6,20,0.00,0,,224
2011-11-15,57,44,26,36,25,14,93,56,20,30.06,29.82,29.65,10,10,10,16,5,20,0.00,0,,344
2011-11-16,42,30,19,21,13,-6,93,57,13,30.31,30.20,30.07,10,10,10,14,4,18,0.00,1,,328
2011-11-17,46,32,17,25,17,9,86,56,22,30.32,30.19,29.97,10,10,10,18,7,24,0.00,0,,201
2011-11-18,57,45,33,36,29,25,81,57,36,29.96,29.78,29.67,10,10,10,23,13,32,0.00,0,,185
2011-11-19,59,42,26,46,33,19,87,74,62,30.17,29.77,29.54,10,10,10,24,9,31,0.00,7,,262
2011-11-20,39,30,19,23,20,18,93,75,49,30.32,30.26,30.18,10,10,10,14,8,17,0.00,2,,15
2011-11-21,42,32,21,36,30,19,93,81,66,30.26,30.18,30.09,10,9,5,6,2,,0.00,7,,66
2011-11-22,42,40,37,41,38,36,100,91,81,30.12,30.05,30.01,7,5,2,10,4,,0.05,8,Rain,338
2011-11-23,48,40,30,39,37,28,100,91,71,30.21,30.17,30.13,7,4,0,13,4,,0.00,5,Fog,178
2011-11-24,68,47,26,46,36,27,100,70,30,30.11,29.99,29.89,10,7,0,23,7,30,0.00,2,Fog,186
2011-11-25,55,50,44,48,45,41,93,83,76,29.89,29.78,29.70,10,9,7,18,12,25,0.00,5,,182
2011-11-26,53,45,37,52,35,25,100,76,60,30.16,29.96,29.70,10,10,5,26,14,33,0.08,7,Rain,325
2011-11-27,39,30,19,25,22,18,93,65,49,30.25,30.21,30.16,10,10,10,21,14,30,0.00,5,,343
2011-11-28,42,27,12,27,20,10,100,81,46,30.21,30.14,30.07,10,10,7,6,1,,0.00,0,,224
2011-11-29,44,32,19,30,17,-6,93,57,12,30.30,30.22,30.11,10,10,10,17,10,21,0.00,0,,353
2011-11-30,48,30,12,19,14,10,93,62,23,30.21,30.07,29.93,10,10,7,15,4,18,0.00,0,,175